GFSSGP_925_spd_057.txt.gz
Wind_Speed
11 9 8 7 7 8 16 19 2 1 9 11 7 4 9 11 7 4 13 10 13 20 25 30 28 25 25 26 26 25 25 23 22 21 20 19 17 16 16 15 13 12 11 10 9 8 7 6 6
7 8 9 6 7 12 12 17 6 11 9 8 8 9 12 10 19 7 13 11 9 18 23 25 29 27 26 27 27 27 26 24 23 21 20 19 17 17 16 15 13 12 11 10 9 8 8 7 6
6 7 8 5 12 14 12 11 2 7 2 7 6 7 10 3 15 8 15 7 1 15 22 24 32 28 27 28 29 28 27 25 24 22 21 20 19 18 16 15 13 12 12 10 9 8 8 8 7
8 9 6 9 15 16 8 4 7 2 5 5 4 5 3 12 8 15 14 8 7 15 20 25 34 30 29 28 30 29 28 27 25 23 22 21 19 18 16 15 14 12 11 11 10 9 8 8 7
14 8 12 16 17 18 3 13 11 12 10 6 8 10 4 12 12 16 12 7 12 18 20 24 35 32 30 28 28 30 28 27 25 24 23 22 21 19 17 16 14 12 11 11 10 9 9 8 7
11 11 15 16 21 16 10 11 11 15 10 9 4 10 5 9 14 16 11 7 13 20 23 22 36 35 31 30 29 29 28 28 25 24 23 22 21 19 17 16 15 13 12 11 11 10 9 8 8
18 15 20 23 21 16 11 12 14 12 12 7 3 5 4 11 14 12 10 5 11 20 25 22 30 34 34 31 29 28 27 27 26 25 24 22 21 19 18 16 14 13 12 12 11 10 10 8 9
15 16 28 23 20 22 13 14 13 14 14 3 1 9 1 11 12 14 7 5 10 21 26 24 27 27 27 27 30 29 27 26 25 25 24 23 21 19 18 17 15 13 12 12 12 11 10 9 9
20 18 22 29 26 20 16 14 10 15 11 8 10 7 7 7 11 14 12 2 8 20 25 24 26 26 27 25 23 30 28 26 25 24 24 22 15 15 14 15 14 14 13 12 12 12 11 11 12
20 17 29 26 23 23 21 20 15 14 16 17 14 14 14 6 14 15 10 6 7 17 25 25 26 25 26 26 23 23 21 20 19 18 18 18 16 15 15 14 17 15 15 13 13 13 13 14 12
22 24 24 25 27 28 21 19 16 21 17 17 18 15 8 10 14 13 9 8 8 14 22 25 25 23 25 26 25 22 22 21 20 21 21 20 18 16 15 14 15 15 15 13 14 13 13 15 15
25 24 22 26 25 15 18 19 19 22 15 14 13 15 13 14 10 11 9 9 6 11 18 22 24 23 25 26 26 23 25 23 22 23 23 19 20 18 15 16 14 12 14 12 14 14 16 16 16
22 22 21 16 20 17 14 19 22 23 12 10 11 17 19 15 10 11 9 3 9 10 21 19 19 21 22 22 24 24 26 24 24 23 24 23 20 18 16 15 15 13 12 14 13 15 15 14 16
12 15 22 17 17 18 19 23 23 24 20 21 14 17 18 14 13 10 10 12 6 6 7 18 23 20 22 22 16 24 23 25 25 24 24 26 23 20 18 16 16 16 15 15 15 15 15 17 17
13 15 16 19 18 19 18 25 27 23 23 22 18 18 17 20 13 10 10 4 8 7 7 10 17 23 20 21 24 17 22 21 25 24 23 24 27 23 21 18 18 18 16 16 15 15 14 17 17
15 17 17 19 23 20 19 25 21 26 25 15 18 19 12 19 16 12 6 6 7 3 5 12 14 19 24 24 22 19 20 23 24 26 25 27 26 27 22 21 20 18 17 16 18 17 14 17 17
17 15 20 18 6 10 17 19 17 11 7 13 14 11 12 14 13 12 8 6 4 3 1 9 12 15 17 23 22 23 22 23 25 20 22 24 29 26 29 23 21 21 20 19 18 17 15 15 16
14 20 18 9 13 12 16 20 18 11 14 14 15 14 15 11 11 12 8 5 3 3 3 3 10 19 15 15 19 21 25 27 27 24 27 27 27 30 31 26 23 22 22 19 18 19 16 16 16
12 16 12 7 11 5 14 19 19 18 19 17 17 16 16 15 9 11 8 4 4 2 4 2 2 8 21 18 16 23 19 25 23 26 25 27 24 31 28 22 18 20 19 22 20 20 19 16 14
14 15 15 14 10 10 16 20 21 21 18 19 19 19 17 14 14 13 11 7 5 3 2 1 3 2 8 19 27 21 24 27 26 27 30 33 32 31 27 27 20 21 21 25 24 23 20 15 17
15 15 15 13 9 11 19 23 26 27 26 24 20 19 17 15 13 11 10 11 8 4 3 2 1 3 6 13 20 29 23 13 8 23 24 32 33 35 33 34 28 26 24 27 28 24 24 18 18
14 11 10 11 11 12 3 12 7 7 11 11 10 9 10 10 10 12 12 12 13 7 3 2 3 6 8 8 14 15 13 9 14 18 26 33 34 32 27 36 33 33 27 31 24 21 23 21 19
12 10 9 14 15 16 19 11 14 17 11 12 10 5 4 6 7 9 9 9 10 7 6 3 3 4 11 8 9 11 16 18 29 43 36 36 33 16 26 33 31 23 29 29 25 21 23 22 23
11 13 15 17 16 16 20 17 14 11 11 11 10 6 6 6 6 5 8 6 8 6 7 4 4 6 8 9 11 13 16 18 20 29 48 23 24 22 21 41 28 29 30 24 22 24 22 25 21
12 13 12 15 14 15 9 5 11 2 5 2 3 5 5 7 5 7 9 9 6 6 5 6 9 6 8 11 13 12 18 17 18 26 25 24 28 24 39 33 27 28 24 23 24 23 25 23 23
16 16 13 17 13 11 14 7 3 6 9 1 6 8 7 7 8 6 7 6 8 9 9 11 12 14 12 12 13 14 17 17 18 20 24 26 22 22 26 29 29 25 22 25 23 24 24 23 22
18 15 13 16 19 15 18 21 12 13 11 8 9 3 5 7 8 7 6 7 11 11 13 14 18 18 18 17 15 16 17 18 18 21 21 23 27 25 23 20 25 25 25 24 25 25 25 22 22
17 12 6 9 16 19 17 20 14 15 17 11 4 4 5 5 6 7 9 12 16 19 19 18 18 22 21 21 20 18 18 19 19 22 25 25 23 24 30 20 24 25 26 27 28 25 23 22 21
15 17 18 16 11 6 12 9 10 7 1 3 1 5 6 8 12 14 14 18 21 23 24 22 22 23 22 22 21 20 18 19 22 23 24 25 23 23 23 27 28 26 28 30 29 25 22 22 21
18 17 18 12 20 16 16 18 13 2 6 4 5 10 13 12 13 14 11 19 22 22 22 25 27 26 21 22 22 22 21 20 22 22 24 25 22 21 25 24 24 26 27 28 28 26 22 22 20

GFSSGP_925_spd_060.txt.gz
Wind_Speed
14 20 12 13 6 7 15 17 21 8 6 14 13 10 15 22 12 7 5 14 25 25 29 30 28 27 24 24 23 22 22 21 20 20 18 18 16 15 15 13 12 11 10 9 7 7 6 5 6
11 15 13 5 9 12 12 17 18 1 13 13 11 12 6 19 22 18 17 12 22 22 25 25 28 28 25 24 23 23 22 21 21 19 18 17 16 15 13 12 11 10 10 8 6 5 5 4 5
12 13 8 5 10 14 14 5 10 14 11 5 4 7 10 13 17 8 10 8 21 21 23 22 27 27 27 24 23 22 22 20 20 19 18 17 16 15 13 11 10 9 9 8 6 6 6 5 5
11 10 7 9 15 17 21 6 10 12 6 2 3 7 2 17 12 11 6 3 14 21 21 21 28 26 26 25 23 23 23 21 20 18 18 17 16 15 14 12 10 8 7 6 6 5 5 5 4
18 7 12 17 18 19 18 8 9 8 11 2 7 10 2 16 14 10 5 1 8 21 22 22 29 28 26 26 24 23 22 21 20 18 17 17 16 16 14 12 10 8 7 6 6 5 4 4 4
11 12 15 16 20 21 16 6 4 11 15 9 11 10 4 15 15 9 7 4 11 23 24 24 30 29 27 26 26 23 22 20 20 18 18 17 16 14 13 12 11 9 8 7 5 5 5 5 4
17 14 21 23 22 22 21 14 10 10 15 13 5 13 3 17 13 14 4 3 9 24 28 23 30 29 28 28 26 26 22 20 19 17 17 16 16 14 13 12 11 10 8 8 8 7 7 7 7
14 15 26 23 20 24 22 19 15 14 13 8 3 6 6 10 9 12 15 2 9 22 29 23 27 29 24 27 27 26 24 20 19 17 17 16 15 15 14 14 13 11 10 10 10 9 9 9 11
21 16 18 27 28 23 20 16 20 19 13 14 5 10 11 9 7 13 15 5 8 18 29 27 27 25 22 21 26 26 24 23 20 18 17 16 15 15 15 15 12 12 12 12 11 11 11 12 14
19 16 27 25 24 25 28 24 14 19 16 17 16 12 11 14 1 8 14 11 1 8 27 31 29 26 24 22 23 26 25 23 21 19 18 18 16 14 14 13 15 13 13 14 14 14 14 15 15
23 23 24 25 24 26 28 27 15 11 16 16 19 16 9 14 7 7 12 4 6 19 17 33 32 27 25 23 25 24 21 21 22 21 19 18 16 16 14 17 17 16 16 17 17 18 20 19 17
25 26 25 23 25 25 25 24 28 12 10 17 19 12 10 6 5 7 11 9 9 11 20 32 35 30 25 21 26 24 23 25 23 27 23 19 21 18 18 17 17 15 14 17 19 20 18 14 14
24 23 24 25 24 22 24 23 20 19 17 8 17 13 12 11 11 13 10 7 3 5 8 8 31 29 29 26 24 24 25 27 25 25 27 25 23 21 21 17 19 20 15 17 17 19 22 23 19
18 21 22 21 20 20 19 22 20 20 17 19 16 14 15 14 15 16 13 10 11 7 7 3 25 27 27 28 16 14 28 26 27 25 28 28 23 24 21 23 20 21 18 16 21 21 19 21 21
16 18 19 16 18 25 17 24 26 20 20 22 22 19 17 13 18 13 9 7 15 12 7 10 7 29 26 30 18 13 14 23 28 25 27 30 29 24 26 23 24 24 23 20 22 17 12 19 19
11 15 17 21 22 23 17 24 21 20 21 24 24 19 15 14 16 18 13 9 6 12 13 15 11 19 25 24 26 21 11 16 17 23 22 29 31 28 21 24 25 25 22 23 22 23 22 21 22
14 15 21 23 23 22 26 25 21 19 19 20 13 17 10 13 7 20 15 13 9 6 6 12 16 12 25 21 25 22 22 20 12 14 25 19 26 28 32 24 27 21 23 24 18 18 21 21 24
17 22 19 19 22 8 11 17 18 16 18 8 11 12 13 10 11 14 12 14 7 4 4 9 14 10 25 24 25 16 21 25 19 19 22 21 26 27 30 32 26 23 24 26 22 20 19 23 23
20 21 17 19 14 16 15 14 16 16 17 15 15 14 13 12 10 12 6 11 8 7 5 8 11 16 18 28 27 25 23 23 29 31 33 25 25 27 33 28 30 26 24 25 23 26 22 28 25
14 14 18 21 17 15 12 16 17 19 20 19 15 14 14 13 13 10 10 13 8 8 10 9 9 13 18 28 19 15 19 22 24 25 27 31 23 30 34 34 29 30 32 29 31 30 24 23 25
13 16 17 19 17 14 9 17 20 26 25 22 20 15 14 14 13 12 13 15 16 12 9 6 5 6 11 13 22 18 18 20 15 21 27 30 33 37 28 30 28 25 27 27 32 34 29 22 22
17 16 17 15 16 12 13 17 17 15 13 24 21 21 18 15 12 8 8 10 15 12 13 4 3 3 5 7 10 20 19 20 23 22 14 23 24 32 31 30 30 34 30 31 36 36 34 25 23
16 12 15 11 14 15 20 13 17 19 20 15 12 8 6 5 6 8 9 10 10 15 6 9 4 3 8 5 6 8 11 17 27 26 26 24 11 17 29 25 28 23 25 31 31 40 35 27 26
13 12 14 16 13 16 21 19 18 17 17 15 17 12 7 8 8 7 11 9 2 3 10 11 11 6 5 8 3 10 10 9 15 21 28 33 37 43 31 16 18 16 26 40 26 34 40 31 25
15 17 12 14 13 16 22 21 17 14 4 11 17 13 9 6 6 5 12 9 8 9 7 2 6 9 5 6 5 11 12 12 20 20 16 23 36 35 40 22 11 37 52 56 39 40 67 29 31
16 15 10 11 14 17 15 9 12 8 13 10 8 4 2 4 6 6 7 12 20 16 13 9 3 5 8 8 9 12 13 12 18 20 20 22 24 28 32 34 48 64 50 61 53 51 42 30 29
20 15 16 10 14 15 16 17 22 11 7 10 10 9 4 5 8 8 10 9 7 4 5 4 6 8 13 14 14 14 16 20 21 20 22 22 22 29 31 26 54 52 51 44 42 42 33 29 28
17 15 9 4 13 17 15 18 13 11 18 12 9 6 8 7 9 8 3 4 9 9 12 15 17 19 18 19 20 19 19 23 24 24 25 23 27 31 28 21 23 32 36 38 36 33 29 27 24
11 15 13 10 7 2 8 8 8 5 11 7 8 3 3 5 4 5 8 9 6 10 13 14 14 15 24 23 23 21 23 21 20 23 25 26 25 26 25 24 26 27 30 34 35 30 28 28 26
20 13 16 7 14 14 15 16 13 2 4 12 11 9 9 10 12 11 10 9 5 9 15 17 17 14 17 21 22 20 21 21 21 24 24 24 25 25 24 23 29 31 33 31 30 30 27 27 27

GFSSGP_925_spd_063.txt.gz
Wind_Speed
18 17 14 4 3 2 4 10 10 16 9 5 5 11 15 9 8 8 9 27 32 34 31 28 29 30 28 25 25 24 23 22 21 21 21 20 19 18 18 16 15 13 12 11 10 9 8 7 7
16 17 4 1 2 1 6 17 11 4 5 7 6 10 17 16 14 8 16 24 32 34 31 28 29 30 29 27 24 24 23 22 21 21 20 20 19 17 16 15 14 13 11 10 9 8 7 7 6
15 11 1 3 3 6 6 4 3 8 7 9 6 3 8 7 11 6 20 25 31 33 31 29 29 31 31 28 25 23 22 22 20 20 19 19 19 17 15 14 13 12 10 9 8 7 7 6 5
7 4 3 1 8 14 15 10 8 9 9 7 6 9 6 14 4 10 24 21 23 29 30 30 29 30 32 31 28 24 23 22 20 19 19 18 18 16 15 14 13 11 9 8 7 7 6 5 5
8 2 2 4 8 12 15 11 2 7 8 7 7 5 8 11 17 15 16 24 21 29 29 32 31 30 30 31 30 28 25 23 21 19 18 17 17 15 14 13 11 10 9 8 6 6 5 5 3
3 2 3 5 9 16 16 9 5 2 6 11 9 4 4 13 13 11 14 16 27 31 29 32 30 30 29 31 29 28 24 23 22 20 19 17 16 15 13 12 11 10 9 7 6 4 4 4 4
4 2 7 10 15 19 19 5 7 7 5 7 5 4 1 8 10 13 7 3 28 32 33 33 32 29 29 29 30 29 27 22 21 19 18 17 16 15 13 11 10 9 7 7 6 5 6 6 6
4 3 13 13 13 17 21 6 7 8 7 7 2 2 3 2 13 12 16 9 26 37 35 36 35 31 29 28 28 28 27 24 20 19 18 17 16 15 13 12 11 9 8 7 7 8 9 10 9
6 9 12 15 18 16 23 7 5 9 6 7 6 4 8 10 13 7 15 17 24 30 35 36 37 32 29 27 27 27 26 24 23 19 18 17 17 15 14 12 10 9 9 9 10 12 12 12 13
7 10 16 10 11 15 21 16 10 2 1 6 3 4 8 9 16 8 8 10 28 15 15 36 38 34 26 24 24 27 28 26 25 22 20 18 16 15 13 12 12 11 11 13 14 14 14 16 17
11 16 11 11 18 23 25 24 18 8 8 7 8 5 1 10 8 6 7 13 21 14 8 18 35 37 30 24 26 26 28 28 25 24 22 20 18 15 12 13 12 13 14 17 18 18 18 19 20
12 16 18 18 21 20 16 14 16 10 15 24 16 4 2 7 7 7 6 8 9 15 14 22 25 36 33 25 24 27 26 29 29 27 25 23 22 21 18 16 16 16 16 18 20 21 19 18 18
11 13 17 17 20 21 14 18 14 8 5 11 6 2 3 3 0 8 17 5 10 10 15 23 30 31 38 30 28 26 28 27 30 29 28 27 26 25 22 21 20 19 18 19 17 19 17 17 18
7 12 13 16 14 9 11 16 5 7 5 6 5 10 8 7 7 7 16 11 10 10 15 17 33 32 32 29 29 28 28 29 28 29 30 27 27 28 26 23 24 22 21 22 21 20 20 21 21
10 9 10 10 6 5 6 12 18 4 8 7 7 5 8 10 13 12 16 22 20 14 15 33 34 32 34 26 24 16 26 28 28 28 26 28 27 24 24 25 28 24 21 18 22 20 18 25 22
8 8 6 7 8 9 3 19 14 8 9 11 8 7 8 10 11 19 18 14 21 18 14 12 27 35 34 34 29 19 11 17 30 29 26 25 29 28 25 26 26 25 25 23 22 20 19 19 19
5 9 9 11 13 14 13 24 13 9 10 10 8 5 14 9 6 7 3 18 19 17 13 8 8 27 36 32 31 27 22 16 11 33 21 29 28 30 29 26 28 22 21 23 23 24 20 24 26
8 8 11 16 16 13 23 23 20 10 12 10 5 6 1 1 6 7 17 22 22 17 13 8 3 9 31 32 27 26 30 28 21 16 17 14 26 32 30 29 30 26 26 21 25 24 23 23 25
16 17 18 12 12 13 8 8 5 5 3 6 8 8 6 7 6 9 19 19 19 12 8 7 8 8 20 28 31 29 27 25 33 32 23 15 14 30 26 31 33 31 29 27 25 28 27 24 23
14 12 8 8 14 11 10 8 6 6 5 6 7 9 9 8 9 9 24 20 15 12 7 4 4 7 9 18 19 19 25 24 35 31 35 28 25 19 24 30 33 31 28 26 28 25 23 21 23
8 5 5 12 15 15 8 7 4 5 6 12 16 10 9 12 11 10 11 25 25 19 15 8 3 3 6 12 14 15 16 16 16 22 28 19 22 23 29 31 33 32 29 35 30 24 18 22 16
8 9 14 16 10 6 4 6 7 5 11 13 19 20 13 10 9 9 14 14 27 23 20 15 8 5 4 7 15 24 18 15 26 24 25 26 24 20 29 30 30 31 32 31 23 22 14 17 17
11 9 12 5 6 6 9 5 7 6 15 18 11 16 15 13 8 10 11 20 22 22 18 14 10 8 9 6 13 17 21 27 17 24 24 21 20 25 27 29 35 28 29 28 25 22 18 18 17
8 3 8 7 2 5 6 6 19 14 17 19 10 10 10 10 11 10 14 24 18 19 19 17 12 7 8 8 9 10 12 14 17 19 19 25 20 16 23 33 26 24 25 25 28 18 23 19 20
8 2 3 3 5 12 5 10 21 11 16 23 14 13 11 10 10 12 12 10 16 12 13 15 15 13 9 9 8 8 8 10 12 15 13 14 12 24 33 32 26 26 27 32 30 26 31 27 30
19 2 3 6 4 8 10 6 7 7 13 10 9 9 9 9 9 12 12 12 20 19 17 19 14 11 7 5 7 9 12 12 15 17 14 15 17 18 20 26 40 40 32 37 33 27 36 35 32
10 5 9 9 9 2 4 10 15 18 7 7 7 8 8 8 9 10 10 15 22 26 22 18 15 13 16 17 13 13 15 15 17 19 18 19 17 13 16 21 28 29 33 41 41 32 35 25 33
6 6 5 1 4 5 6 11 7 9 5 5 5 7 8 6 8 7 7 12 23 29 26 28 25 22 22 22 20 20 19 20 21 21 21 21 24 23 25 25 22 25 33 34 33 31 27 40 45
7 4 3 7 4 4 3 5 5 5 9 10 8 6 3 7 5 6 7 12 13 14 10 6 3 11 22 23 23 23 23 24 24 23 23 23 23 25 27 27 27 27 30 32 38 45 40 41 37
4 7 4 1 4 5 4 10 3 4 9 11 13 11 13 9 11 4 8 12 19 20 15 10 7 5 3 7 20 25 29 29 30 26 26 24 25 26 28 28 29 28 29 31 37 41 38 41 36

GFSSGP_925_spd_069.txt.gz
Wind_Speed
18 18 10 4 4 4 4 3 3 7 7 4 7 2 8 5 2 3 6 28 25 40 38 36 33 33 33 32 29 28 28 29 30 32 32 30 27 24 22 20 19 17 16 15 14 13 13 12 12
16 14 4 2 4 1 5 4 3 3 5 8 6 4 6 3 2 4 7 12 28 42 39 37 34 33 33 32 31 30 28 28 28 29 29 27 25 23 22 20 19 18 16 15 14 13 13 13 13
10 5 3 3 3 5 4 3 5 6 8 3 2 2 3 2 2 6 4 19 32 37 38 36 34 32 32 32 30 30 29 28 27 27 26 25 24 23 22 21 19 17 15 14 13 13 13 13 12
5 5 4 3 7 6 5 5 5 13 5 8 0 4 2 0 1 6 20 23 37 33 37 35 34 31 30 30 29 29 28 28 28 27 25 24 22 21 20 19 17 16 14 13 12 12 12 12 10
2 3 1 1 7 4 3 7 8 11 4 7 0 3 4 3 5 17 24 30 38 36 36 36 35 33 31 30 29 28 28 27 27 27 26 24 22 20 19 18 16 14 12 11 10 9 9 9 8
2 3 2 4 8 9 1 4 6 5 6 3 3 4 3 2 13 21 26 34 34 35 34 34 33 34 33 31 30 29 28 28 26 25 25 25 23 20 18 16 15 13 12 10 9 8 7 6 6
5 4 6 5 5 10 2 1 7 6 11 7 5 6 3 3 18 24 26 28 31 33 33 32 33 33 32 31 30 30 30 29 27 24 24 24 22 21 19 17 15 13 12 10 8 6 5 4 3
4 4 4 5 6 13 4 1 5 7 14 8 3 5 6 5 13 25 24 26 28 31 35 34 35 34 33 33 31 29 28 29 29 28 25 23 22 21 19 17 15 13 12 10 8 6 5 3 3
4 2 5 8 8 14 9 3 1 5 6 6 5 5 10 17 14 24 24 22 23 26 30 26 29 35 35 35 33 30 28 26 26 27 27 25 23 22 20 18 15 13 11 9 8 6 6 6 6
4 4 8 4 7 10 7 4 4 6 13 8 11 5 10 14 15 17 18 20 23 25 32 30 29 35 34 34 34 33 32 30 29 28 27 26 25 22 20 18 16 14 12 10 8 8 8 9 9
5 9 4 4 5 9 14 14 5 5 11 10 13 7 5 8 8 12 18 29 37 35 32 33 27 34 35 31 34 35 34 33 31 30 29 28 25 23 22 19 18 16 14 12 11 10 11 12 12
5 5 5 8 9 10 12 10 13 6 13 10 12 7 5 10 9 8 11 18 22 32 35 37 34 32 33 32 33 29 30 33 32 33 31 29 28 27 25 23 21 19 16 14 12 11 10 11 12
5 6 9 12 12 10 12 16 12 21 15 10 15 7 11 10 10 21 25 22 22 24 31 37 38 34 36 34 27 26 26 28 31 34 33 32 31 29 27 25 22 19 16 15 13 12 12 10 11
3 4 7 7 8 6 8 13 5 18 10 15 17 11 8 10 11 8 15 27 28 29 34 35 40 41 40 40 37 34 33 35 38 36 35 33 31 30 28 25 23 20 17 15 14 14 15 14 14
3 5 6 4 4 4 6 7 15 8 10 12 10 8 8 11 9 12 28 27 30 30 33 37 38 41 43 46 43 40 42 41 39 39 37 35 33 30 29 26 24 22 18 15 14 15 16 17 16
6 3 4 4 1 6 4 14 13 7 5 9 10 9 9 9 12 25 20 25 30 30 30 34 37 40 42 37 40 43 43 44 43 42 40 36 35 31 29 27 26 22 19 17 18 15 15 16 18
5 5 5 7 4 4 6 9 7 7 7 10 11 10 10 9 8 19 24 20 22 31 33 36 35 37 42 39 35 33 32 35 29 32 38 40 39 33 31 30 28 24 23 19 19 19 17 17 16
5 5 6 5 4 1 10 17 9 10 7 13 10 13 10 10 13 23 24 25 23 27 35 35 35 35 38 36 33 32 28 30 32 31 29 33 38 34 35 31 27 25 23 21 18 20 18 17 15
5 5 10 13 15 4 12 13 9 10 8 13 10 10 10 12 10 18 24 25 25 28 32 34 35 32 35 33 31 28 27 29 32 28 24 33 33 35 39 34 28 25 25 24 20 18 17 18 18
8 12 15 11 14 6 10 14 9 7 9 7 10 9 10 6 4 2 7 19 28 35 32 30 29 29 35 36 34 25 26 22 29 37 36 31 31 32 35 33 26 27 24 22 21 20 17 19 15
10 7 12 12 6 5 2 9 6 4 5 6 6 3 5 8 8 6 5 16 26 28 30 29 27 24 25 30 27 19 13 11 16 21 27 33 35 39 42 36 28 26 23 26 20 21 20 20 13
6 9 9 9 4 7 3 11 5 5 8 6 9 8 9 9 8 7 10 10 20 32 31 28 25 23 21 20 23 24 23 20 18 19 22 23 28 34 31 31 27 21 21 28 14 25 26 21 20
7 7 7 9 5 1 2 1 8 2 6 9 9 11 11 10 9 11 11 21 30 31 33 31 28 24 20 18 16 13 9 12 11 10 10 10 21 34 29 27 28 32 33 23 38 23 29 21 24
8 6 5 5 2 3 7 7 14 9 7 5 5 8 12 15 11 10 17 24 22 25 31 30 27 22 19 16 14 12 9 10 10 10 12 15 15 16 22 27 26 24 25 27 31 37 40 43 34
9 6 5 4 3 13 8 4 17 4 6 8 9 10 14 16 16 11 11 12 18 24 32 32 27 21 17 14 12 11 10 10 9 8 7 6 12 20 22 21 22 21 23 26 27 29 32 35 36
3 4 3 7 5 7 4 8 18 4 7 8 8 7 10 12 12 13 15 16 25 26 30 29 26 23 20 18 14 11 9 8 9 8 7 7 8 11 12 15 18 21 23 23 22 26 31 33 29
4 5 3 4 5 4 5 8 13 13 7 4 8 10 13 12 9 9 4 13 25 26 31 30 26 24 22 18 15 14 13 14 13 11 10 9 9 10 11 10 9 12 14 19 25 29 30 33 30
1 3 0 2 4 5 4 5 7 11 8 8 1 10 8 11 14 12 9 9 11 10 31 29 29 27 25 22 21 21 20 18 16 14 12 12 11 11 11 11 13 14 14 16 20 24 26 31 33
2 2 1 2 3 3 3 5 3 5 6 13 7 4 5 6 7 8 8 13 12 9 11 24 32 32 30 28 27 25 22 19 15 15 14 14 13 12 12 11 12 13 15 16 20 23 27 28 29
4 5 5 3 3 3 4 5 4 7 7 14 17 8 6 4 6 4 6 7 12 9 9 19 20 34 35 34 32 28 24 20 17 15 16 17 18 17 15 15 14 14 15 17 19 22 24 26 28

GFSSGP_925_spd_072.txt.gz
Wind_Speed
17 16 8 5 3 4 2 5 2 6 6 4 5 4 3 1 4 4 5 16 26 38 37 35 34 33 32 32 33 33 34 33 32 31 30 27 25 23 21 19 17 16 15 15 14 14 14 14 15
14 10 4 2 3 1 3 3 1 3 6 11 3 2 2 1 2 4 10 11 24 40 36 34 33 32 31 31 30 31 32 31 32 32 30 27 25 23 20 19 17 16 16 15 15 15 14 14 15
7 6 3 4 3 5 4 4 2 5 8 4 3 2 1 1 2 7 9 21 30 36 36 33 33 33 31 29 30 30 31 31 31 30 29 27 25 22 21 20 18 17 16 15 14 14 14 14 14
3 5 4 4 6 6 3 2 5 6 7 1 3 1 3 3 1 6 23 23 33 37 37 34 33 33 32 31 30 30 30 31 31 30 27 26 24 22 21 20 19 18 16 15 15 14 13 12 12
4 3 1 2 5 4 4 6 4 4 7 8 5 1 1 3 4 17 27 24 38 36 35 34 34 33 32 30 30 30 30 31 31 29 27 25 23 22 21 20 19 17 16 14 14 13 12 11 9
3 3 2 5 7 3 3 4 4 3 8 10 8 5 1 2 11 17 20 26 34 37 37 34 33 33 33 32 30 30 30 31 31 30 29 27 25 23 22 20 18 16 15 13 12 11 10 9 7
5 4 5 4 4 7 3 1 3 2 6 5 7 3 5 2 9 19 21 25 30 28 31 30 32 32 32 32 31 30 30 31 31 31 29 27 27 25 23 20 18 15 14 13 11 10 8 7 5
4 4 4 5 5 12 4 2 3 3 5 8 1 1 7 5 17 19 20 24 25 27 30 24 26 31 32 31 31 30 30 30 30 29 29 28 26 24 23 20 17 15 13 12 10 9 7 5 4
4 3 4 7 7 10 3 4 1 2 5 5 5 4 7 2 14 23 22 21 24 26 29 25 25 27 33 31 29 28 28 29 29 28 28 27 26 23 21 20 17 15 13 11 9 7 5 3 3
4 4 7 6 5 6 4 4 5 4 10 4 7 12 6 10 17 13 16 17 23 29 29 26 25 27 32 33 32 31 29 28 28 28 28 28 26 24 22 19 16 14 13 11 9 7 6 5 5
3 4 4 3 5 6 3 4 4 3 18 6 8 10 3 8 12 11 12 21 30 23 26 33 27 25 32 36 34 33 32 31 29 28 28 28 27 25 23 21 20 17 15 12 10 8 7 7 7
1 5 5 7 7 7 10 6 9 10 17 6 9 7 7 7 9 12 16 20 25 29 31 29 32 32 35 35 37 36 34 32 32 30 29 30 28 27 26 24 21 19 17 14 11 8 7 6 6
4 5 6 7 7 7 10 10 12 21 8 12 9 11 10 10 11 17 25 26 25 29 33 33 34 35 40 37 36 36 38 36 35 32 32 32 31 30 27 25 22 19 17 15 12 9 7 7 8
3 3 6 5 6 4 6 8 7 2 8 13 11 14 10 12 14 13 15 21 29 29 33 35 37 36 36 40 38 38 36 36 35 31 33 34 33 31 28 25 22 20 17 14 13 11 9 8 9
2 3 7 4 4 5 4 10 9 7 8 11 13 13 8 11 13 12 28 29 31 31 32 37 40 41 42 44 43 41 40 33 30 33 35 33 32 30 29 26 24 21 15 14 15 12 11 8 11
4 4 3 5 4 6 6 14 8 6 7 10 11 8 6 10 9 25 26 30 33 30 32 34 36 41 42 42 40 35 34 29 29 30 36 33 32 30 28 26 25 22 17 16 17 15 12 11 10
5 2 2 7 5 5 5 6 6 7 5 9 10 10 11 8 10 19 31 31 34 34 35 36 39 41 45 41 39 36 33 30 31 33 34 34 32 31 29 30 26 26 22 16 18 17 14 14 12
4 3 3 4 5 4 10 15 9 11 6 10 9 10 12 15 16 23 28 32 35 38 37 37 40 40 38 32 28 30 31 33 34 35 35 34 33 33 31 30 31 27 25 21 21 19 16 17 11
3 3 5 9 14 5 9 14 12 12 9 11 9 9 11 15 19 18 21 21 27 29 33 36 37 39 36 33 30 30 34 32 31 35 34 33 33 34 32 31 31 30 27 32 20 17 14 19 10
5 5 8 7 11 6 8 13 10 7 8 10 8 8 10 8 10 11 16 16 24 32 36 39 39 39 37 34 32 24 28 33 33 32 30 27 28 28 24 31 33 34 31 33 25 18 17 16 9
4 4 5 7 7 4 5 13 6 6 6 7 7 7 7 9 10 9 9 14 17 25 37 42 41 39 37 34 28 19 22 20 28 32 34 32 26 25 24 28 30 27 34 29 33 26 20 18 4
4 5 6 6 4 5 2 18 9 4 10 9 11 8 9 10 8 8 8 9 18 27 28 33 34 35 35 34 31 29 24 17 20 31 33 35 30 28 29 30 26 26 28 29 35 26 21 15 14
7 3 4 5 7 4 2 5 2 2 7 9 9 10 9 7 8 10 11 17 24 22 27 31 31 29 30 32 32 31 26 21 18 25 26 25 24 26 26 30 33 27 27 25 28 24 19 24 24
1 2 3 2 2 9 8 8 20 17 7 5 6 6 9 9 7 10 17 26 24 26 26 28 31 32 30 30 29 29 27 23 23 21 19 24 25 27 29 30 26 25 28 44 33 37 32 31 31
4 5 4 4 1 9 4 5 16 9 5 8 8 7 7 8 8 9 10 13 20 23 32 31 32 33 32 30 28 25 22 20 19 19 20 21 21 22 23 24 21 21 22 21 26 26 24 21 23
1 5 4 6 6 14 6 7 15 2 3 6 7 4 6 5 6 8 11 10 18 24 29 33 35 33 30 28 25 22 19 18 16 16 16 16 16 18 17 19 19 19 18 18 16 15 15 18 19
0 3 2 3 7 6 5 9 13 5 9 13 3 5 4 4 5 7 8 4 9 17 26 35 37 33 29 26 24 21 17 15 13 12 12 13 13 13 13 11 10 10 11 13 14 13 13 14 19
3 4 0 1 4 6 4 4 7 9 8 10 10 8 8 10 7 7 7 7 8 7 6 17 28 32 30 27 24 22 20 16 14 13 13 12 12 11 10 9 8 7 7 7 7 8 9 12 15
1 1 2 1 3 4 4 3 5 5 5 7 8 6 8 9 8 3 4 5 12 9 7 9 16 21 28 27 25 22 20 18 16 14 13 13 11 10 9 8 7 6 5 5 5 6 9 12 14
4 6 5 4 6 4 3 8 7 2 8 7 12 11 11 9 8 8 2 4 10 13 13 5 15 16 17 19 24 27 24 21 20 19 17 15 13 11 9 7 7 6 5 5 6 6 8 12 15

GFSSGP_925_spd_075.txt.gz
Wind_Speed
14 13 8 0 3 2 2 4 1 2 2 2 8 5 4 2 4 1 3 19 17 29 28 34 36 33 30 30 30 31 36 36 33 32 29 25 24 22 20 19 17 16 15 13 13 13 14 15 16
11 8 2 1 3 5 3 2 3 5 12 12 3 5 5 3 1 3 10 14 24 28 29 29 36 35 32 32 33 35 37 35 32 31 28 25 23 22 20 18 17 16 15 15 14 13 13 14 15
5 4 2 1 2 7 2 5 5 10 9 7 5 2 2 2 1 5 7 22 28 28 27 30 37 36 35 33 35 35 36 34 32 31 28 26 24 22 20 19 17 16 15 15 14 13 13 13 14
1 2 3 5 11 4 2 5 8 11 5 8 8 6 2 2 4 4 20 24 30 30 29 32 36 36 36 35 34 34 34 33 32 31 29 26 24 22 21 20 18 17 16 15 14 13 12 12 12
3 1 6 6 12 5 4 1 6 8 6 9 10 9 5 3 6 13 20 22 29 29 27 28 34 33 33 33 33 33 33 33 32 31 30 27 25 22 21 20 19 18 17 15 14 13 13 12 10
3 1 7 14 16 6 2 1 6 7 6 10 11 10 3 5 4 14 16 19 24 26 27 27 33 32 30 30 31 31 32 32 32 31 29 27 25 24 23 21 19 18 17 15 15 13 12 11 9
6 5 15 14 13 12 5 2 2 4 8 7 13 9 3 11 3 7 14 18 23 23 24 25 27 31 30 29 30 30 30 31 31 31 29 26 25 24 23 21 19 18 16 15 13 12 11 9 7
3 3 11 9 11 19 3 2 3 7 10 9 5 3 4 13 4 10 9 17 21 23 24 25 24 26 26 28 30 29 28 28 29 29 28 27 25 24 22 21 19 16 15 13 12 11 10 8 6
3 5 11 14 11 8 3 3 5 5 12 8 5 10 13 10 9 13 12 16 19 20 24 24 25 25 25 26 27 29 28 28 28 27 27 26 22 24 22 21 19 18 16 14 12 10 8 7 6
6 6 9 4 5 6 5 6 11 9 14 15 17 13 9 1 9 14 16 17 23 24 26 26 26 26 26 24 24 25 26 27 27 23 22 21 20 22 20 20 19 16 14 13 10 8 7 6 5
5 8 4 3 6 7 5 6 7 12 18 15 17 17 15 15 8 15 18 20 21 20 23 25 26 27 27 27 25 24 22 23 24 27 24 20 17 17 18 15 16 14 14 10 10 9 7 6 5
4 5 9 8 13 15 16 15 18 20 21 16 17 19 19 17 15 14 20 22 23 25 25 25 25 27 28 25 27 26 25 23 22 23 27 23 20 18 16 15 14 14 12 12 11 7 7 6 4
5 3 5 9 10 11 14 16 18 21 16 18 17 19 19 18 18 19 21 19 21 24 27 27 27 27 27 26 24 25 26 27 24 22 24 24 20 18 16 16 14 14 11 10 11 10 8 6 5
6 3 3 4 6 7 9 14 8 6 8 14 14 17 17 17 18 21 17 19 22 23 26 27 29 31 32 30 27 27 25 24 24 22 25 28 24 23 19 16 16 15 16 12 11 10 7 7 8
1 3 4 6 5 5 5 15 9 12 11 14 15 13 14 14 18 20 22 22 25 28 24 29 30 30 33 33 32 28 25 24 23 20 20 28 30 27 25 22 21 20 17 15 14 13 9 8 6
1 1 3 2 5 4 5 20 8 1 9 13 15 12 11 10 9 14 21 21 22 21 26 28 28 30 33 36 31 28 27 27 26 24 19 22 27 30 28 24 22 22 19 16 15 13 11 9 6
2 3 1 5 5 6 6 13 7 16 16 12 12 15 14 13 11 14 16 22 21 25 23 25 28 30 36 33 27 27 26 29 31 30 35 32 32 31 32 28 24 22 20 19 18 15 14 10 7
2 2 3 7 3 8 17 19 18 15 16 14 11 12 14 14 16 17 18 23 29 30 26 23 25 29 28 26 26 25 26 28 27 24 31 31 28 28 33 28 29 27 24 22 21 21 14 14 9
3 4 7 11 12 6 13 16 16 17 15 14 13 12 13 14 16 17 16 18 26 29 29 24 24 29 28 28 29 29 31 30 27 26 28 30 39 36 30 24 25 29 26 24 25 17 16 15 10
6 7 9 9 10 5 13 19 14 15 16 16 15 15 12 12 12 14 14 14 20 29 34 37 35 29 31 31 30 23 28 27 29 31 32 35 38 38 35 34 24 23 26 30 26 19 15 10 12
8 7 9 10 9 10 14 20 12 10 11 14 16 15 12 12 12 13 13 9 13 21 31 34 35 35 36 31 24 18 16 13 22 25 30 37 36 36 35 31 30 25 25 21 27 23 20 13 12
7 7 7 7 9 12 8 17 18 15 20 18 15 15 15 13 13 12 12 13 12 17 19 27 26 30 29 30 29 29 26 21 26 27 27 27 33 31 29 29 27 27 19 18 22 17 23 16 9
7 3 7 9 13 15 16 14 14 7 14 15 15 16 17 14 12 14 13 16 16 14 17 19 24 26 27 31 30 28 25 23 15 21 22 24 26 31 28 27 25 26 26 22 16 12 12 15 9
2 4 10 6 7 12 17 16 8 12 16 15 15 16 16 12 12 13 16 18 21 18 14 16 21 27 28 30 33 32 28 24 21 19 21 21 22 23 25 23 22 24 24 25 24 19 14 19 31
1 5 8 7 7 11 7 13 14 20 15 19 21 19 11 8 9 11 13 13 19 23 19 17 19 24 27 30 31 32 31 27 25 22 22 21 21 20 23 22 20 20 19 21 26 28 37 25 37
2 3 5 12 14 19 16 10 8 15 11 14 14 5 7 8 8 9 12 12 19 23 23 20 23 25 25 26 27 26 26 24 20 20 17 17 18 19 14 14 17 18 16 16 18 22 23 25 12
4 4 1 7 14 12 8 16 18 7 13 17 15 14 14 11 11 13 11 8 15 18 21 23 25 25 24 26 22 21 20 20 19 17 17 14 13 13 14 15 14 15 14 13 14 19 28 29 39
2 5 3 1 5 9 9 17 11 7 11 13 18 16 14 16 15 14 13 16 11 11 15 16 22 26 23 20 19 20 21 19 19 20 18 17 15 13 11 11 12 11 12 12 14 14 16 20 19
3 4 2 1 3 5 8 7 3 9 12 14 12 12 12 13 15 15 15 18 15 11 9 13 16 20 22 23 22 21 22 21 21 20 19 18 17 15 12 11 10 10 11 11 12 11 12 11 9
5 8 9 5 5 5 3 15 12 13 5 8 10 9 10 13 12 13 14 18 19 15 11 5 9 16 16 15 16 18 21 24 23 21 20 19 17 15 12 12 11 11 10 10 10 10 9 7 5

GFSSGP_925_spd_078.txt.gz
Wind_Speed
12 9 8 8 7 6 11 7 2 5 4 3 8 8 7 13 6 3 2 10 20 27 30 34 33 31 30 30 30 30 31 30 30 30 29 26 23 22 21 20 18 16 14 12 11 10 11 13 14
10 9 10 4 8 10 10 5 12 1 4 7 3 6 8 7 4 2 6 13 21 26 29 32 35 33 30 30 30 32 33 32 32 31 29 25 23 21 20 18 16 14 13 12 12 12 13 14 14
7 7 8 5 11 12 6 8 6 2 3 7 4 3 6 3 2 4 1 16 23 23 26 30 37 34 31 30 30 32 33 33 32 31 28 25 23 21 20 19 17 15 14 14 14 14 14 14 13
6 6 5 10 15 11 2 6 0 3 2 6 6 4 2 11 7 5 14 18 22 22 25 27 37 34 30 30 30 31 36 34 31 31 27 24 23 21 20 19 18 16 15 15 14 14 14 13 13
11 5 11 15 19 8 4 5 5 5 6 7 8 6 1 9 10 6 14 18 20 21 22 24 36 33 30 29 30 32 36 34 31 29 26 24 22 21 19 18 16 16 15 14 14 13 13 13 12
9 8 14 18 19 8 5 9 8 11 6 7 8 9 7 7 8 6 11 16 18 21 20 24 34 35 33 29 31 32 35 32 31 29 26 24 22 21 20 18 16 15 15 14 13 13 12 11 10
15 13 19 21 17 11 10 9 12 8 8 10 10 8 3 13 8 4 8 11 18 20 21 22 26 30 33 32 30 31 32 32 31 29 27 24 22 21 20 18 17 16 14 13 13 12 11 10 9
10 13 21 20 16 14 8 12 12 12 12 9 5 2 3 14 11 5 9 11 18 20 22 23 25 26 25 27 32 31 30 29 29 29 27 24 23 21 20 18 18 17 15 14 13 11 10 9 8
8 11 15 20 14 12 6 15 15 8 12 12 14 9 10 10 9 6 10 13 17 21 23 24 26 26 26 25 26 31 30 30 29 27 26 24 17 17 18 17 18 17 16 14 12 11 10 8 7
13 13 18 4 2 7 10 13 15 15 18 15 15 15 12 6 5 7 13 15 20 22 24 25 26 28 27 25 24 24 23 24 24 23 20 19 18 16 15 16 18 17 15 13 12 11 9 7 6
13 15 12 5 8 12 16 16 15 18 21 20 16 17 14 13 13 11 14 18 20 21 22 24 25 25 27 25 24 25 23 23 23 23 22 21 19 16 16 14 14 13 14 11 11 10 8 8 7
8 10 9 10 11 13 17 17 19 18 20 19 18 19 19 18 15 14 13 18 19 21 22 23 24 26 26 25 25 24 25 24 23 24 24 22 20 18 18 16 16 15 14 13 12 11 10 9 8
13 7 9 10 10 13 14 17 18 19 15 16 19 18 19 19 18 19 17 15 18 21 23 25 26 27 27 27 26 25 25 25 24 24 24 23 21 19 18 16 14 13 13 13 13 11 9 8 8
7 6 8 7 10 11 14 17 16 11 8 13 14 15 16 18 18 20 18 16 18 22 24 27 29 29 28 29 26 27 26 25 25 24 25 25 23 22 21 18 18 16 14 13 12 11 10 10 9
6 9 10 12 13 10 11 16 20 15 15 11 11 13 14 15 17 17 20 18 17 23 25 27 29 29 31 31 28 27 26 25 26 26 25 25 24 24 21 20 20 19 17 14 12 12 11 11 10
9 7 11 9 6 7 6 13 6 8 8 11 12 11 12 14 12 12 14 13 14 18 20 25 26 29 29 29 29 29 27 28 26 27 26 29 26 23 22 19 18 18 16 16 15 12 14 12 11
9 10 7 4 7 8 11 11 2 6 13 16 15 14 12 13 14 14 16 15 11 17 19 21 24 28 30 28 27 28 27 27 27 27 27 27 27 27 24 21 19 18 17 19 16 16 15 14 13
5 9 8 10 4 9 14 17 17 15 15 16 14 15 14 14 14 13 14 15 14 12 17 20 22 24 24 24 26 25 27 28 29 28 28 27 30 25 30 23 21 19 18 18 17 18 17 18 13
7 8 10 9 9 12 15 16 15 16 16 17 15 13 14 13 12 14 14 13 14 14 14 20 22 23 24 25 26 27 30 29 29 29 29 28 27 28 30 26 25 22 21 24 19 18 17 18 15
10 11 12 10 10 11 15 18 17 18 19 18 17 15 15 15 15 13 15 13 13 17 18 21 26 25 28 26 27 27 26 26 25 26 26 27 28 29 28 27 26 26 22 23 21 18 18 17 19
12 12 11 14 13 16 20 21 17 15 15 14 16 17 18 18 16 16 15 14 15 17 19 21 24 27 29 29 24 21 19 21 23 27 28 32 31 30 30 27 27 28 26 28 25 22 20 20 16
11 4 9 13 14 14 14 17 18 14 14 15 15 16 17 18 16 13 15 17 17 17 17 19 23 25 29 28 27 28 27 25 29 28 26 27 29 30 29 30 27 23 25 26 20 22 20 20 18
9 5 11 15 17 18 20 13 16 17 17 14 10 11 14 18 21 21 17 20 20 17 17 19 19 23 28 30 34 32 30 27 23 24 25 25 25 26 27 26 23 25 27 19 22 21 20 21 19
11 13 15 16 16 15 17 10 6 10 14 13 17 19 20 19 17 14 17 16 19 20 19 20 21 23 25 31 33 33 32 31 27 24 25 25 25 26 28 27 25 25 22 24 21 20 23 24 22
9 13 10 12 12 12 7 10 11 17 10 11 14 16 16 13 13 12 12 12 16 19 22 22 23 25 24 29 34 37 36 31 29 28 26 24 27 26 30 30 26 24 24 21 21 23 23 24 25
5 7 8 13 13 17 19 10 8 7 5 4 5 7 9 12 12 11 10 13 17 20 21 19 22 25 25 27 33 33 34 33 33 29 27 26 25 25 24 27 25 24 22 21 22 24 25 22 24
2 8 8 11 16 15 13 15 14 7 4 5 4 6 8 12 16 17 17 19 19 20 23 23 19 23 25 29 30 30 33 34 31 27 26 22 22 22 21 20 21 22 22 22 22 21 23 22 23
8 5 6 4 5 10 9 16 13 3 6 9 13 13 15 15 15 16 17 19 20 21 21 22 19 19 24 27 28 27 28 29 26 25 25 23 21 19 19 20 20 21 20 19 19 18 18 19 19
6 8 6 4 4 5 10 8 8 13 13 15 10 13 16 14 17 15 16 21 21 20 22 21 19 17 19 24 25 27 26 26 25 26 24 21 19 18 16 15 16 17 18 18 19 19 17 20 19
10 12 11 8 7 7 8 18 13 7 9 11 17 21 15 13 15 15 15 19 20 20 20 19 20 14 15 18 21 25 26 27 26 24 23 21 19 18 17 16 15 15 15 15 16 16 15 16 16

GFSSGP_925_spd_084.txt.gz
Wind_Speed
15 17 21 20 7 8 18 22 23 25 1 0 10 7 7 17 9 7 15 17 32 28 27 28 27 26 25 23 25 25 24 23 22 21 20 19 18 18 18 17 16 15 13 11 10 9 11 12 13
14 15 19 10 12 14 16 22 24 22 15 11 6 3 8 4 16 12 13 16 29 28 26 25 28 27 26 24 24 25 24 23 23 22 21 19 19 18 17 15 14 12 10 9 9 10 11 12 11
14 15 9 9 15 17 18 21 16 4 11 5 1 2 6 7 14 19 15 24 26 25 25 23 28 27 26 25 25 24 23 23 23 22 21 19 18 17 16 14 12 10 9 9 9 11 11 11 9
9 14 9 14 20 24 26 22 16 11 7 3 3 3 8 13 5 10 12 20 23 21 21 23 28 27 26 25 25 24 24 23 23 22 21 19 18 17 15 13 12 10 10 10 10 11 11 10 8
20 9 14 18 24 24 23 20 10 2 3 7 7 5 11 13 10 11 9 18 19 20 22 20 28 26 26 25 24 23 23 23 23 22 20 18 18 17 16 15 13 12 11 11 11 11 11 9 8
13 13 15 19 23 24 23 7 16 8 8 5 1 4 11 12 10 9 10 15 17 20 20 20 26 26 25 25 24 23 22 22 22 23 21 19 17 16 15 14 12 12 11 11 11 11 11 8 6
20 16 21 24 22 24 19 17 10 9 12 10 9 1 12 13 7 5 8 12 17 21 20 17 25 25 24 23 23 24 24 23 23 23 22 19 18 16 15 14 14 13 12 12 11 11 10 9 8
16 16 26 24 21 24 12 16 16 18 16 15 10 4 4 8 6 1 7 13 15 20 22 19 22 20 22 22 21 21 24 25 25 24 22 19 17 16 15 14 14 13 12 12 11 11 10 9 8
25 16 18 27 27 22 20 21 20 17 9 15 8 7 13 10 4 0 9 10 16 20 23 25 23 21 20 17 19 20 19 24 25 24 23 20 18 17 15 14 12 13 12 11 11 11 10 9 9
20 17 26 24 24 23 21 18 21 5 8 18 18 17 17 14 5 6 6 10 15 20 24 28 29 25 23 21 20 19 18 20 25 22 24 20 16 14 14 14 15 13 13 12 12 11 10 10 10
24 20 22 25 25 15 9 4 2 6 14 16 19 18 13 20 8 7 7 5 14 21 24 31 36 31 26 24 26 22 19 19 21 20 20 23 18 18 18 20 17 16 15 14 14 14 13 12 9
23 24 21 24 20 4 7 9 12 11 15 18 15 12 12 16 9 10 11 16 9 21 12 25 36 35 32 26 31 27 24 23 22 23 23 21 22 21 22 19 19 18 17 16 14 14 13 10 9
20 21 21 21 23 4 7 16 16 18 15 14 13 11 14 12 10 16 19 22 22 10 15 19 32 32 32 28 25 29 29 27 25 25 27 24 25 23 22 21 20 20 20 20 21 16 18 13 14
17 20 18 13 17 12 13 15 17 17 12 16 16 13 12 13 13 18 22 22 20 20 11 34 14 33 31 33 21 27 31 29 30 26 30 31 30 26 26 25 22 23 23 23 24 22 18 18 14
15 11 15 22 14 17 15 19 19 17 15 17 12 11 11 11 12 11 18 21 24 21 20 16 28 30 32 34 32 18 27 23 35 30 30 35 32 31 33 29 25 24 25 22 22 21 20 16 13
13 13 15 17 19 16 13 15 16 21 18 17 13 11 12 12 11 12 15 19 14 6 10 12 20 24 31 32 34 24 24 29 29 33 33 37 35 33 33 35 32 30 25 26 21 24 20 21 18
12 14 19 20 26 13 16 14 18 7 10 8 7 8 9 10 10 17 16 15 5 8 13 15 15 25 28 31 35 36 23 27 25 30 31 39 43 41 35 31 31 28 25 27 24 20 21 19 21
17 19 15 18 15 12 13 15 15 12 13 13 14 16 13 10 10 12 15 17 11 14 6 10 16 15 28 27 27 26 29 27 29 29 36 32 39 35 32 36 27 28 28 22 25 23 24 25 21
19 15 15 7 3 3 9 11 13 13 11 12 9 11 11 14 10 17 18 18 14 8 4 9 17 14 20 22 24 25 27 29 31 35 28 36 38 38 40 28 28 32 29 26 27 28 28 27 25
11 12 14 14 12 10 11 14 15 16 15 14 13 10 10 8 13 11 14 14 14 14 12 10 14 22 19 24 29 28 29 31 32 30 34 30 37 39 40 34 32 31 33 36 35 37 29 27 27
13 14 14 15 14 10 10 16 17 19 20 18 17 13 6 8 6 6 6 15 20 17 17 16 16 19 25 22 27 27 27 28 28 35 36 40 40 40 41 39 43 40 39 34 33 32 31 23 29
12 14 15 12 9 10 13 13 16 14 13 12 13 10 9 1 8 9 9 14 19 13 14 13 16 18 18 21 21 25 28 28 33 29 34 39 40 42 43 44 44 41 30 31 31 34 30 28 19
9 11 8 10 13 14 17 11 15 16 17 7 12 15 15 13 13 12 12 17 18 19 17 14 9 9 10 14 19 23 31 31 33 34 32 37 39 42 43 45 37 39 35 34 35 33 32 30 23
5 10 14 15 15 14 22 18 15 9 9 11 11 11 9 10 12 13 16 16 18 20 18 19 18 15 17 18 19 24 26 33 30 33 32 35 35 40 40 40 38 35 37 33 35 32 34 32 31
15 12 11 12 10 14 16 5 9 4 7 4 6 3 4 4 4 7 11 13 17 19 22 21 22 21 21 22 22 23 28 31 34 34 33 33 35 32 37 41 39 39 42 44 39 40 34 37 32
11 10 7 8 11 15 16 8 9 16 9 10 4 6 6 5 5 6 8 9 15 15 18 17 21 22 23 21 25 29 33 30 31 37 35 36 35 39 40 36 41 44 42 42 40 37 38 36 38
5 7 4 8 13 11 13 18 15 8 11 9 3 3 9 10 10 10 11 12 12 15 15 21 21 21 22 26 25 27 30 33 33 34 37 39 37 38 43 38 43 47 46 43 39 37 34 34 31
13 10 9 6 5 12 10 8 5 10 11 7 10 9 10 12 13 7 10 9 9 13 17 17 22 24 23 28 26 26 29 31 35 36 36 39 40 41 45 46 50 46 44 40 38 35 36 32 30
8 10 11 5 7 4 8 9 11 11 11 8 11 11 14 14 8 10 10 14 15 15 16 20 18 21 28 29 28 25 30 33 32 33 38 37 40 42 39 43 49 49 41 43 43 39 36 34 29
12 11 8 7 7 10 11 12 14 9 10 14 14 18 15 15 15 13 14 16 17 18 19 23 18 19 25 29 26 23 32 32 28 31 35 37 37 41 47 21 20 40 40 24 38 35 34 31 27